| time (UTC) | temp F | wind direction | speed MPH | gust MPH | rain 1hr in | rain 24hr in | rain mn in | humidity % | barometer mb |
| 20260504050503 | 68 | 135 | 1.0 | 4.0 | 0.00 | 0.00 | 0.00 | 58 | 1014.8 |
| 20260504050003 | 68 | 124 | 2.0 | 6.0 | 0.00 | 0.00 | 0.00 | 58 | 1014.9 |
| 20260504045503 | 68 | 129 | 2.0 | 6.0 | 0.00 | 0.00 | 0.00 | 58 | 1014.9 |
| 20260504045003 | 68 | 139 | 2.0 | 6.0 | 0.00 | 0.00 | 0.00 | 57 | 1015.0 |
| 20260504044503 | 68 | 143 | 2.0 | 6.0 | 0.00 | 0.00 | 0.00 | 57 | 1015.0 |
| 20260504044003 | 68 | 134 | 1.0 | 3.0 | 0.00 | 0.00 | 0.00 | 56 | 1015.0 |
| 20260504043503 | 69 | 113 | 1.0 | 6.0 | 0.00 | 0.00 | 0.00 | 56 | 1015.0 |
| 20260504043213 | 69 | 112 | 2.0 | 7.0 | 0.00 | 0.00 | 0.00 | 56 | 1015.0 |
| 20260504042503 | 69 | 129 | 2.0 | 7.0 | 0.00 | 0.00 | 0.00 | 55 | 1015.1 |
| 20260504042003 | 69 | 136 | 3.0 | 8.0 | 0.00 | 0.00 | 0.00 | 55 | 1015.2 |
| 20260504041503 | 69 | 133 | 3.0 | 9.0 | 0.00 | 0.00 | 0.00 | 54 | 1015.2 |
| 20260504041213 | 69 | 133 | 3.0 | 9.0 | 0.00 | 0.00 | 0.00 | 54 | 1015.2 |
| 20260504040503 | 70 | 137 | 2.0 | 8.0 | 0.00 | 0.00 | 0.00 | 54 | 1015.1 |
| 20260504040003 | 70 | 136 | 3.0 | 9.0 | 0.00 | 0.00 | 0.00 | 54 | 1015.2 |
| 20260504035503 | 70 | 131 | 3.0 | 9.0 | 0.00 | 0.00 | 0.00 | 53 | 1015.2 |
| 20260504035003 | 70 | 131 | 3.0 | 8.0 | 0.00 | 0.00 | 0.00 | 53 | 1015.1 |
| 20260504034503 | 70 | 126 | 3.0 | 9.0 | 0.00 | 0.00 | 0.00 | 53 | 1015.1 |
| 20260504034003 | 70 | 128 | 3.0 | 12.0 | 0.00 | 0.00 | 0.00 | 53 | 1015.1 |
| 20260504033503 | 70 | 132 | 3.0 | 12.0 | 0.00 | 0.00 | 0.00 | 52 | 1015.1 |
| 20260504033213 | 71 | 138 | 3.0 | 12.0 | 0.00 | 0.00 | 0.00 | 52 | 1015.1 |
| 20260504032503 | 71 | 147 | 3.0 | 9.0 | 0.00 | 0.00 | 0.00 | 52 | 1015.0 |
| 20260504032003 | 71 | 136 | 3.0 | 8.0 | 0.00 | 0.00 | 0.00 | 52 | 1015.1 |
| 20260504031503 | 71 | 131 | 3.0 | 10.0 | 0.00 | 0.00 | 0.00 | 51 | 1015.0 |
| 20260504031003 | 71 | 130 | 3.0 | 10.0 | 0.00 | 0.00 | 0.00 | 51 | 1015.1 |
| 20260504030503 | 71 | 136 | 3.0 | 9.0 | 0.00 | 0.00 | 0.00 | 51 | 1015.0 |
| 20260504030003 | 71 | 136 | 2.0 | 7.0 | 0.00 | 0.00 | 0.00 | 50 | 1015.0 |
| 20260504025503 | 71 | 125 | 3.0 | 8.0 | 0.00 | 0.00 | 0.00 | 50 | 1014.9 |
| 20260504025003 | 72 | 125 | 3.0 | 8.0 | 0.00 | 0.00 | 0.00 | 49 | 1014.9 |
| 20260504024503 | 72 | 126 | 3.0 | 8.0 | 0.00 | 0.00 | 0.00 | 49 | 1014.9 |
| 20260504024213 | 72 | 123 | 3.0 | 8.0 | 0.00 | 0.00 | 0.00 | 49 | 1014.9 |
| 20260504023503 | 72 | 131 | 3.0 | 8.0 | 0.00 | 0.00 | 0.00 | 48 | 1014.8 |
| 20260504023003 | 72 | 129 | 3.0 | 7.0 | 0.00 | 0.00 | 0.00 | 48 | 1014.8 |
| 20260504022503 | 73 | 122 | 3.0 | 9.0 | 0.00 | 0.00 | 0.00 | 47 | 1014.7 |
| 20260504022212 | 73 | 121 | 4.0 | 9.0 | 0.00 | 0.00 | 0.00 | 47 | 1014.8 |
| 20260504021503 | 73 | 124 | 3.0 | 9.0 | 0.00 | 0.00 | 0.00 | 47 | 1014.7 |
| 20260504021003 | 73 | 132 | 3.0 | 9.0 | 0.00 | 0.00 | 0.00 | 46 | 1014.7 |
| 20260504020503 | 73 | 131 | 3.0 | 8.0 | 0.00 | 0.00 | 0.00 | 46 | 1014.7 |
| 20260504020212 | 73 | 130 | 3.0 | 8.0 | 0.00 | 0.00 | 0.00 | 46 | 1014.8 |
| 20260504015503 | 74 | 130 | 3.0 | 10.0 | 0.00 | 0.00 | 0.00 | 45 | 1014.7 |
| 20260504015003 | 74 | 129 | 3.0 | 11.0 | 0.00 | 0.00 | 0.00 | 45 | 1014.7 |
| 20260504014713 | 74 | 127 | 4.0 | 11.0 | 0.00 | 0.00 | 0.00 | 44 | 1014.7 |
| 20260504014003 | 74 | 125 | 4.0 | 11.0 | 0.00 | 0.00 | 0.00 | 44 | 1014.7 |
| 20260504013503 | 74 | 126 | 3.0 | 9.0 | 0.00 | 0.00 | 0.00 | 44 | 1014.5 |
| 20260504013003 | 75 | 119 | 3.0 | 9.0 | 0.00 | 0.00 | 0.00 | 44 | 1014.4 |
| 20260504012713 | 75 | 122 | 3.0 | 9.0 | 0.00 | 0.00 | 0.00 | 43 | 1014.4 |
| 20260504012003 | 75 | 117 | 4.0 | 10.0 | 0.00 | 0.00 | 0.00 | 42 | 1014.4 |
| 20260504011503 | 76 | 119 | 4.0 | 10.0 | 0.00 | 0.00 | 0.00 | 42 | 1014.4 |
| 20260504011003 | 76 | 119 | 4.0 | 10.0 | 0.00 | 0.00 | 0.00 | 42 | 1014.4 |
| 20260504010503 | 76 | 119 | 4.0 | 9.0 | 0.00 | 0.00 | 0.00 | 41 | 1014.3 |
| 20260504010003 | 76 | 123 | 4.0 | 9.0 | 0.00 | 0.00 | 0.00 | 41 | 1014.3 |
| 20260504005503 | 76 | 123 | 4.0 | 10.0 | 0.00 | 0.00 | 0.00 | 40 | 1014.2 |
| 20260504005003 | 77 | 125 | 5.0 | 10.0 | 0.00 | 0.00 | 0.00 | 40 | 1014.2 |
| 20260504004713 | 77 | 127 | 5.0 | 12.0 | 0.00 | 0.00 | 0.00 | 39 | 1014.2 |
| 20260504004003 | 78 | 131 | 4.0 | 12.0 | 0.00 | 0.00 | 0.00 | 39 | 1014.2 |
| 20260504003503 | 78 | 127 | 4.0 | 12.0 | 0.00 | 0.00 | 0.00 | 39 | 1014.2 |
| 20260504003003 | 78 | 127 | 4.0 | 12.0 | 0.00 | 0.00 | 0.00 | 39 | 1014.2 |
| 20260504002713 | 78 | 128 | 4.0 | 12.0 | 0.00 | 0.00 | 0.00 | 39 | 1014.3 |
| 20260504002003 | 78 | 136 | 5.0 | 12.0 | 0.00 | 0.00 | 0.00 | 38 | 1014.3 |
| 20260504001503 | 79 | 141 | 5.0 | 12.0 | 0.00 | 0.00 | 0.00 | 37 | 1014.4 |
| 20260504001003 | 79 | 136 | 4.0 | 10.0 | 0.00 | 0.00 | 0.00 | 37 | 1014.4 |
| 20260504000712 | 79 | 133 | 4.0 | 10.0 | 0.00 | 0.00 | 0.00 | 37 | 1014.4 |
| 20260504000003 | 79 | 129 | 4.0 | 12.0 | 0.00 | 0.00 | 0.00 | 37 | 1014.4 |
| 20260503235503 | 80 | 142 | 5.0 | 12.0 | 0.00 | 0.00 | 0.00 | 36 | 1014.4 |
| 20260503235003 | 80 | 151 | 4.0 | 11.0 | 0.00 | 0.00 | 0.00 | 36 | 1014.6 |
| 20260503234503 | 80 | 159 | 3.0 | 8.0 | 0.00 | 0.00 | 0.00 | 37 | 1014.6 |
| 20260503234213 | 80 | 161 | 3.0 | 7.0 | 0.00 | 0.00 | 0.00 | 38 | 1014.6 |
| 20260503233503 | 80 | 148 | 4.0 | 9.0 | 0.00 | 0.00 | 0.00 | 36 | 1014.6 |
| 20260503233003 | 80 | 143 | 4.0 | 11.0 | 0.00 | 0.00 | 0.00 | 37 | 1014.8 |
| 20260503232712 | 81 | 146 | 4.0 | 11.0 | 0.00 | 0.00 | 0.00 | 37 | 1014.8 |
| 20260503232003 | 81 | 146 | 4.0 | 11.0 | 0.00 | 0.00 | 0.00 | 37 | 1014.8 |
| 20260503231503 | 81 | 140 | 4.0 | 13.0 | 0.00 | 0.00 | 0.00 | 37 | 1014.8 |
| 20260503231003 | 82 | 144 | 4.0 | 13.0 | 0.00 | 0.00 | 0.00 | 35 | 1014.8 |
| 20260503230712 | 82 | 152 | 4.0 | 11.0 | 0.00 | 0.00 | 0.00 | 36 | 1014.9 |
| 20260503230003 | 82 | 171 | 3.0 | 8.0 | 0.00 | 0.00 | 0.00 | 36 | 1015.0 |
| 20260503225503 | 82 | 167 | 3.0 | 9.0 | 0.00 | 0.00 | 0.00 | 36 | 1015.0 |
| 20260503225003 | 81 | 133 | 4.0 | 9.0 | 0.00 | 0.00 | 0.00 | 37 | 1015.0 |
| 20260503224503 | 81 | 118 | 5.0 | 12.0 | 0.00 | 0.00 | 0.00 | 36 | 1015.0 |
| 20260503224213 | 82 | 113 | 5.0 | 12.0 | 0.00 | 0.00 | 0.00 | 35 | 1015.0 |
| 20260503223503 | 82 | 140 | 4.0 | 12.0 | 0.00 | 0.00 | 0.00 | 35 | 1015.1 |
| 20260503223003 | 83 | 149 | 3.0 | 12.0 | 0.00 | 0.00 | 0.00 | 35 | 1015.1 |
| 20260503222503 | 83 | 149 | 3.0 | 11.0 | 0.00 | 0.00 | 0.00 | 36 | 1015.1 |
| 20260503222003 | 82 | 146 | 3.0 | 11.0 | 0.00 | 0.00 | 0.00 | 35 | 1015.2 |
| 20260503221503 | 82 | 131 | 3.0 | 8.0 | 0.00 | 0.00 | 0.00 | 35 | 1015.3 |
| 20260503221003 | 82 | 142 | 3.0 | 9.0 | 0.00 | 0.00 | 0.00 | 34 | 1015.4 |
| 20260503220503 | 83 | 169 | 3.0 | 10.0 | 0.00 | 0.00 | 0.00 | 34 | 1015.4 |
| 20260503220003 | 83 | 151 | 4.0 | 11.0 | 0.00 | 0.00 | 0.00 | 34 | 1015.4 |
| 20260503215503 | 83 | 131 | 5.0 | 11.0 | 0.00 | 0.00 | 0.00 | 34 | 1015.5 |
| 20260503215003 | 84 | 133 | 3.0 | 10.0 | 0.00 | 0.00 | 0.00 | 35 | 1015.4 |
| 20260503214503 | 83 | 126 | 4.0 | 13.0 | 0.00 | 0.00 | 0.00 | 34 | 1015.5 |
| 20260503214212 | 83 | 130 | 4.0 | 13.0 | 0.00 | 0.00 | 0.00 | 34 | 1015.6 |
| 20260503213503 | 84 | 152 | 4.0 | 10.0 | 0.00 | 0.00 | 0.00 | 34 | 1015.7 |
| 20260503213003 | 84 | 136 | 4.0 | 9.0 | 0.00 | 0.00 | 0.00 | 34 | 1015.8 |
| 20260503212503 | 84 | 130 | 5.0 | 10.0 | 0.00 | 0.00 | 0.00 | 35 | 1015.9 |
| 20260503212003 | 84 | 137 | 4.0 | 10.0 | 0.00 | 0.00 | 0.00 | 33 | 1015.9 |
| 20260503211713 | 84 | 144 | 4.0 | 13.0 | 0.00 | 0.00 | 0.00 | 34 | 1016.0 |
| 20260503211212 | 84 | 168 | 4.0 | 13.0 | 0.00 | 0.00 | 0.00 | 35 | 1016.1 |
| 20260503210503 | 84 | 156 | 4.0 | 11.0 | 0.00 | 0.00 | 0.00 | 35 | 1016.2 |
| 20260503210003 | 84 | 147 | 4.0 | 11.0 | 0.00 | 0.00 | 0.00 | 34 | 1016.2 |
| 20260503205503 | 84 | 178 | 4.0 | 9.0 | 0.00 | 0.00 | 0.00 | 34 | 1016.5 |
| 20260503205003 | 84 | 172 | 4.0 | 9.0 | 0.00 | 0.00 | 0.00 | 32 | 1016.4 |
| 20260503204503 | 84 | 145 | 4.0 | 9.0 | 0.00 | 0.00 | 0.00 | 36 | 1016.6 |
| 20260503204003 | 84 | 156 | 3.0 | 10.0 | 0.00 | 0.00 | 0.00 | 33 | 1016.7 |
| 20260503203503 | 84 | 193 | 4.0 | 10.0 | 0.00 | 0.00 | 0.00 | 35 | 1016.8 |
| 20260503203003 | 83 | 197 | 4.0 | 11.0 | 0.00 | 0.00 | 0.00 | 34 | 1016.8 |
| 20260503202503 | 84 | 202 | 4.0 | 13.0 | 0.00 | 0.00 | 0.00 | 34 | 1017.0 |
| 20260503202003 | 84 | 205 | 4.0 | 13.0 | 0.00 | 0.00 | 0.00 | 34 | 1017.1 |
| 20260503201713 | 84 | 199 | 3.0 | 11.0 | 0.00 | 0.00 | 0.00 | 33 | 1017.1 |
| 20260503201003 | 84 | 197 | 3.0 | 10.0 | 0.00 | 0.00 | 0.00 | 35 | 1017.1 |
| 20260503200713 | 84 | 180 | 3.0 | 10.0 | 0.00 | 0.00 | 0.00 | 34 | 1017.2 |
| 20260503200003 | 84 | 199 | 3.0 | 10.0 | 0.00 | 0.00 | 0.00 | 36 | 1017.2 |
| 20260503195503 | 83 | 222 | 3.0 | 10.0 | 0.00 | 0.00 | 0.00 | 35 | 1017.3 |
| 20260503195003 | 84 | 207 | 3.0 | 9.0 | 0.00 | 0.00 | 0.00 | 34 | 1017.5 |
| 20260503194503 | 84 | 164 | 3.0 | 8.0 | 0.00 | 0.00 | 0.00 | 34 | 1017.5 |
| 20260503194003 | 83 | 164 | 3.0 | 12.0 | 0.00 | 0.00 | 0.00 | 37 | 1017.6 |
| 20260503193713 | 83 | 167 | 4.0 | 12.0 | 0.00 | 0.00 | 0.00 | 35 | 1017.8 |
| 20260503193003 | 83 | 159 | 3.0 | 9.0 | 0.00 | 0.00 | 0.00 | 36 | 1017.8 |
| 20260503192713 | 83 | 149 | 3.0 | 8.0 | 0.00 | 0.00 | 0.00 | 35 | 1017.7 |
| 20260503192003 | 84 | 181 | 3.0 | 8.0 | 0.00 | 0.00 | 0.00 | 39 | 1018.2 |
| 20260503191503 | 83 | 189 | 3.0 | 8.0 | 0.00 | 0.00 | 0.00 | 34 | 1018.1 |
| 20260503191003 | 83 | 173 | 4.0 | 10.0 | 0.00 | 0.00 | 0.00 | 38 | 1018.3 |
| 20260503190503 | 83 | 147 | 4.0 | 10.0 | 0.00 | 0.00 | 0.00 | 40 | 1018.3 |
| 20260503190003 | 83 | 148 | 3.0 | 10.0 | 0.00 | 0.00 | 0.00 | 39 | 1018.4 |
| 20260503185503 | 83 | 141 | 4.0 | 14.0 | 0.00 | 0.00 | 0.00 | 40 | 1018.4 |
| 20260503185003 | 82 | 159 | 4.0 | 14.0 | 0.00 | 0.00 | 0.00 | 40 | 1018.6 |
| 20260503184712 | 82 | 186 | 4.0 | 10.0 | 0.00 | 0.00 | 0.00 | 40 | 1018.5 |
| 20260503184003 | 82 | 215 | 3.0 | 9.0 | 0.00 | 0.00 | 0.00 | 40 | 1018.7 |
| 20260503183503 | 82 | 201 | 3.0 | 9.0 | 0.00 | 0.00 | 0.00 | 41 | 1018.7 |
| 20260503183213 | 82 | 173 | 3.0 | 9.0 | 0.00 | 0.00 | 0.00 | 41 | 1018.8 |
| 20260503182503 | 82 | 176 | 3.0 | 8.0 | 0.00 | 0.00 | 0.00 | 40 | 1018.8 |
| 20260503182003 | 82 | 196 | 3.0 | 9.0 | 0.00 | 0.00 | 0.00 | 41 | 1019.0 |
| 20260503181712 | 82 | 215 | 3.0 | 11.0 | 0.00 | 0.00 | 0.00 | 41 | 1019.0 |
| 20260503181003 | 81 | 208 | 4.0 | 11.0 | 0.00 | 0.00 | 0.00 | 40 | 1019.2 |
| 20260503180503 | 82 | 171 | 4.0 | 11.0 | 0.00 | 0.00 | 0.00 | 42 | 1019.3 |
| 20260503180003 | 81 | 183 | 4.0 | 10.0 | 0.00 | 0.00 | 0.00 | 42 | 1019.3 |
| 20260503175712 | 81 | 201 | 3.0 | 10.0 | 0.00 | 0.00 | 0.00 | 43 | 1019.3 |
| 20260503175003 | 81 | 206 | 4.0 | 10.0 | 0.00 | 0.00 | 0.00 | 45 | 1019.5 |
| 20260503174503 | 81 | 208 | 3.0 | 10.0 | 0.00 | 0.00 | 0.00 | 45 | 1019.7 |
| 20260503174003 | 82 | 208 | 3.0 | 10.0 | 0.00 | 0.00 | 0.00 | 47 | 1019.7 |
| 20260503173503 | 81 | 190 | 3.0 | 7.0 | 0.00 | 0.00 | 0.00 | 44 | 1019.8 |
| 20260503173003 | 81 | 164 | 3.0 | 7.0 | 0.00 | 0.00 | 0.00 | 47 | 1019.8 |
| 20260503172503 | 81 | 162 | 3.0 | 9.0 | 0.00 | 0.00 | 0.00 | 45 | 1019.8 |
| 20260503172003 | 80 | 184 | 3.0 | 9.0 | 0.00 | 0.00 | 0.00 | 45 | 1019.9 |
| 20260503171503 | 80 | 197 | 3.0 | 8.0 | 0.00 | 0.00 | 0.00 | 47 | 1020.0 |
| 20260503171213 | 80 | 197 | 3.0 | 8.0 | 0.00 | 0.00 | 0.00 | 47 | 1020.1 |
| 20260503170714 | 80 | 207 | 3.0 | 8.0 | 0.00 | 0.00 | 0.00 | 47 | 1020.1 |
| 20260503151003 | 74 | 219 | 4.0 | 9.0 | 0.00 | 0.00 | 0.00 | 55 | 1020.7 |
| 20260503150503 | 73 | 222 | 3.0 | 7.0 | 0.00 | 0.00 | 0.00 | 55 | 1020.6 |
| 20260503131003 | 61 | 169 | 1.0 | 2.0 | 0.00 | 0.00 | 0.00 | 72 | 1020.2 |
| 20260503130503 | 61 | 177 | 0.0 | 2.0 | 0.00 | 0.00 | 0.00 | 73 | 1020.2 |
| 20260503110503 | 56 | 0 | 0.0 | 0.0 | 0.00 | 0.00 | 0.00 | 76 | 1019.3 |
| 20260503110212 | 57 | 0 | 0.0 | 0.0 | 0.00 | 0.00 | 0.00 | 76 | 1019.3 |
| 20260503090503 | 56 | 0 | 0.0 | 0.0 | 0.00 | 0.00 | 0.00 | 79 | 1019.2 |
| 20260503081214 | 57 | 0 | 0.0 | 0.0 | 0.00 | 0.00 | 0.00 | 76 | 1019.1 |
| 20260503080503 | 58 | 175 | 0.0 | 1.0 | 0.00 | 0.00 | 0.00 | 75 | 1019.2 |
| 20260503072503 | 60 | 206 | 0.0 | 2.0 | 0.00 | 0.00 | 0.00 | 70 | 1019.4 |